Home   Weather   Wilkes-Barre   Past weeks
Flag for USA

Past Weather in Wilkes-Barre, Pennsylvania, USA — Yesterday and Last 2 Weeks

Now
51 °F

Overcast.


Feels Like: 51 °F
Forecast: 66 / 47 °F
Wind: No wind

Location: Barre - Scranton - Wilkes-Barre / Scranton International Airport

Current Time: Oct 14, 2019 at 12:22:06 am

Latest Report: Oct 13, 2019 at 10:54 pm


Visibility: 10 mi

Pressure: 30.00 "Hg

Humidity: 77%

Dew Point: 44 °F

Location of Wilkes-BarreLocation

Past Weather in Wilkes-Barre — Graph

°F

Wilkes-Barre Temperature Yesterday

Maximum temperature yesterday: 64 °F (at 3:54 pm)
Minimum temperature yesterday: 45 °F (at 7:54 am)
Average temperature yesterday: 55 °F

High & Low Weather Summary for the Past Weeks

 TemperatureHumidityPressure
High85 °F (Oct 2, 1:54 pm)97% (Oct 3, 3:16 am)30.46 "Hg (Oct 3, 3:16 am)
Low36 °F (Oct 5, 6:54 am)27% (Oct 5, 2:54 pm)29.78 "Hg (Oct 2, 3:54 pm)
Average59 °F76%30.15 "Hg
* Reported Sep 28 10:54 pm — Oct 13 10:54 pm, Wilkes-Barre. Weather by CustomWeather, © 2019

Note: Actual official high and low records may vary slightly from our data, if they occured in-between our weather recording intervals... More about our weather records

Advertising

Wilkes-Barre Weather History for the Previous 24 Hours

Scroll right to see more
 ConditionsComfort  
Time TempWeatherWind HumidityBarometerVisibility
10:54 pm
Sun, Oct 13
51 °FOvercast.No wind77%30.00 "Hg10 mi
9:54 pm51 °FClear.3 mph74%30.01 "Hg10 mi
8:54 pm57 °FClear.3 mph58%30.01 "Hg10 mi
7:54 pm59 °FPassing clouds.No wind51%30.01 "Hg10 mi
6:54 pm61 °FMostly cloudy.5 mph46%30.00 "Hg10 mi
5:54 pm62 °FPassing clouds.5 mph44%29.99 "Hg10 mi
4:54 pm63 °FPassing clouds.3 mph40%30.00 "Hg10 mi
3:54 pm64 °FPassing clouds.5 mph45%30.02 "Hg10 mi
2:54 pm62 °FSunny.7 mph46%30.03 "Hg10 mi
1:54 pm63 °FSunny.6 mph41%30.04 "Hg10 mi
12:54 pm62 °FSunny.6 mph38%30.07 "Hg10 mi
11:54 am60 °FSunny.No wind39%30.09 "Hg10 mi
10:54 am55 °FSunny.No wind53%30.11 "Hg10 mi
9:54 am51 °FSunny.3 mph77%30.12 "Hg10 mi
8:54 am47 °FSunny.No wind90%30.12 "Hg10 mi
7:54 am45 °FSunny.No wind93%30.11 "Hg9 mi
6:54 am46 °FPassing clouds.No wind93%30.11 "Hg10 mi
6:02 am48 °FMostly cloudy.3 mph89%30.10 "Hg10 mi
4:54 am50 °FOvercast.No wind86%30.06 "Hg10 mi
4:13 am50 °FMostly cloudy.3 mph83%30.06 "Hg10 mi
3:54 am50 °FMostly cloudy.3 mph83%30.06 "Hg10 mi
2:54 am51 °FMostly cloudy.6 mph80%30.05 "Hg10 mi
2:05 am52 °FLow clouds.7 mph80%30.05 "Hg10 mi
1:30 am52 °FPassing clouds.6 mph83%30.05 "Hg10 mi
12:54 am53 °FOvercast.6 mph83%30.04 "Hg10 mi
Weather by CustomWeather, © 2019

See weather overview